TKJ79H LTCB-LTAC

Flight info

Callsign TKJ79H
Flight time 0h 55m
Altitude 32000
Route EMLAD UW71 ILHAN
Aircraft A320/M-SDE3FGHIRWY/LB1

Departure

Time 2026-05-07 15:44
Airport Ordu–Giresun Airport (LTCB)

Arrival

Time 2026-05-07 16:39
Airport Esenboğa International Airport (LTAC)
Time Latitude Longitude Altitude Speed Heading
2026-05-07 15:26 40.96474 38.07959 18 ft 0 kts 192°
2026-05-07 15:36 40.96488 38.07963 18 ft 4 kts 193°
2026-05-07 15:37 40.96513 38.07974 21 ft 4 kts 210°
2026-05-07 15:37 40.96533 38.07995 20 ft 4 kts 248°
2026-05-07 15:37 40.96535 38.08017 18 ft 1 kts 281°
2026-05-07 15:37 40.96535 38.08021 17 ft 0 kts 281°
2026-05-07 15:40 40.96537 38.08007 17 ft 3 kts 281°
2026-05-07 15:40 40.96543 38.07966 17 ft 6 kts 281°
2026-05-07 15:41 40.96553 38.07900 20 ft 9 kts 281°
2026-05-07 15:41 40.96566 38.07810 20 ft 11 kts 281°
2026-05-07 15:41 40.96625 38.07775 18 ft 11 kts
2026-05-07 15:41 40.96709 38.07798 20 ft 13 kts 12°
2026-05-07 15:42 40.96793 38.07809 25 ft 12 kts 341°
2026-05-07 15:42 40.96828 38.07707 26 ft 14 kts 281°
2026-05-07 15:42 40.96849 38.07569 24 ft 18 kts 281°
2026-05-07 15:42 40.96881 38.07361 22 ft 27 kts 282°
2026-05-07 15:43 40.96921 38.07109 21 ft 25 kts 282°
2026-05-07 15:43 40.96916 38.06976 22 ft 15 kts 244°
2026-05-07 15:43 40.96944 38.06897 22 ft 9 kts 30°
2026-05-07 15:43 40.96941 38.06988 23 ft 21 kts 102°
2026-05-07 15:44 40.96859 38.07520 25 ft 94 kts 101°
2026-05-07 15:44 40.96689 38.08618 23 ft 147 kts 100°
2026-05-07 15:44 40.96476 38.09976 627 ft 148 kts 99°
2026-05-07 15:44 40.96444 38.11353 1292 ft 151 kts 88°
2026-05-07 15:45 40.96474 38.12758 1889 ft 160 kts 89°
2026-05-07 15:45 40.96497 38.14326 2266 ft 180 kts 91°
2026-05-07 15:45 40.96523 38.16075 2606 ft 202 kts 89°
2026-05-07 15:45 40.96571 38.18067 2958 ft 230 kts 89°
2026-05-07 15:46 40.97361 38.22444 4268 ft 266 kts 47°
2026-05-07 15:46 40.98940 38.23684 5226 ft 270 kts 12°
2026-05-07 15:46 41.00786 38.23519 6222 ft 270 kts 337°
2026-05-07 15:47 41.02243 38.22004 7177 ft 271 kts 303°
2026-05-07 15:47 41.02816 38.19643 8086 ft 276 kts 270°
2026-05-07 15:47 41.02298 38.17198 8994 ft 282 kts 239°
2026-05-07 15:47 41.01078 38.15179 9933 ft 286 kts 229°
2026-05-07 15:48 40.99728 38.13227 10756 ft 289 kts 229°
2026-05-07 15:48 40.98403 38.11198 11549 ft 293 kts 237°
2026-05-07 15:48 40.97610 38.08726 12302 ft 294 kts 264°
2026-05-07 15:48 40.97755 38.05995 12708 ft 309 kts 290°
2026-05-07 15:49 40.98817 38.03446 13040 ft 325 kts 306°
2026-05-07 15:49 41.00114 38.00955 13710 ft 332 kts 305°
2026-05-07 15:49 41.01388 37.98387 14416 ft 335 kts 304°
2026-05-07 15:49 41.02648 37.95770 15086 ft 339 kts 303°
2026-05-07 15:50 41.03909 37.93108 15735 ft 342 kts 303°
2026-05-07 15:50 41.05175 37.90420 16390 ft 346 kts 303°
2026-05-07 15:50 41.06456 37.87703 17054 ft 349 kts 303°
2026-05-07 15:50 41.07730 37.85006 17710 ft 352 kts 303°
2026-05-07 15:51 41.09040 37.82239 18380 ft 355 kts 303°
2026-05-07 15:51 41.10363 37.79447 18970 ft 359 kts 304°
2026-05-07 15:51 41.11697 37.76634 19563 ft 362 kts 304°
2026-05-07 15:51 41.13044 37.73791 20154 ft 365 kts 304°
2026-05-07 15:52 41.14398 37.70928 20747 ft 368 kts 304°
2026-05-07 15:52 41.15761 37.68037 21295 ft 371 kts 304°
2026-05-07 15:52 41.17124 37.65113 21841 ft 374 kts 301°
2026-05-07 15:52 41.18207 37.61952 22358 ft 380 kts 291°
2026-05-07 15:53 41.18826 37.58512 22893 ft 387 kts 280°
2026-05-07 15:53 41.19033 37.54931 23420 ft 391 kts 276°
2026-05-07 15:53 41.19247 37.51318 23916 ft 394 kts 278°
2026-05-07 15:53 41.19514 37.47688 24355 ft 396 kts 278°
2026-05-07 15:54 41.19803 37.44082 24813 ft 398 kts 279°
2026-05-07 15:54 41.20106 37.40366 25273 ft 401 kts 279°
2026-05-07 15:54 41.20397 37.36734 25702 ft 403 kts 278°
2026-05-07 15:54 41.20684 37.33011 26152 ft 405 kts 278°
2026-05-07 15:55 41.20962 37.29279 26606 ft 408 kts 278°
2026-05-07 15:55 41.21236 37.25521 27045 ft 410 kts 278°
2026-05-07 15:55 41.21509 37.21739 27474 ft 413 kts 278°
2026-05-07 15:55 41.21790 37.17931 27888 ft 415 kts 278°
2026-05-07 15:56 41.22085 37.14111 28310 ft 417 kts 278°
2026-05-07 15:56 41.22388 37.10266 28724 ft 420 kts 278°
2026-05-07 15:56 41.22691 37.06397 29136 ft 422 kts 278°
2026-05-07 15:56 41.22998 37.02501 29550 ft 425 kts 278°
2026-05-07 15:57 41.23200 36.99908 29817 ft 427 kts 278°
2026-05-07 15:57 41.23506 36.95980 30255 ft 429 kts 278°
2026-05-07 15:57 41.23808 36.92025 30599 ft 431 kts 278°
2026-05-07 15:57 41.24109 36.88049 30948 ft 434 kts 278°
2026-05-07 15:58 41.24409 36.84053 31290 ft 436 kts 278°
2026-05-07 15:58 41.24709 36.80027 31631 ft 439 kts 278°
2026-05-07 15:58 41.25010 36.75989 31996 ft 440 kts 278°
2026-05-07 15:58 41.25308 36.71953 32140 ft 436 kts 278°
2026-05-07 15:59 41.25593 36.68015 32166 ft 420 kts 278°
2026-05-07 15:59 41.26141 36.60423 32159 ft 409 kts 279°
2026-05-07 16:00 41.25866 36.52886 32174 ft 414 kts 260°
2026-05-07 16:00 41.23988 36.45619 32174 ft 417 kts 253°
2026-05-07 16:01 41.21997 36.38432 32174 ft 417 kts 253°
2026-05-07 16:01 41.19996 36.31205 32157 ft 417 kts 255°
2026-05-07 16:02 41.17987 36.23992 32171 ft 416 kts 255°
2026-05-07 16:02 41.15975 36.16791 32171 ft 416 kts 255°
2026-05-07 16:03 41.13957 36.09600 32171 ft 416 kts 254°
2026-05-07 16:03 41.11939 36.02420 32170 ft 416 kts 254°
2026-05-07 16:04 41.09919 35.95239 32149 ft 415 kts 255°
2026-05-07 16:04 41.07880 35.88066 32154 ft 416 kts 254°
2026-05-07 16:05 41.05777 35.80923 32147 ft 416 kts 254°
2026-05-07 16:05 41.03656 35.73780 32151 ft 417 kts 254°
2026-05-07 16:06 41.01559 35.66681 32139 ft 416 kts 254°
2026-05-07 16:06 40.99509 35.59528 32130 ft 415 kts 255°
2026-05-07 16:07 40.97478 35.52374 32129 ft 415 kts 255°
2026-05-07 16:07 40.95435 35.45226 32127 ft 415 kts 255°
2026-05-07 16:08 40.93384 35.38091 32124 ft 415 kts 255°
2026-05-07 16:08 40.91333 35.30996 32124 ft 415 kts 254°
2026-05-07 16:09 40.89267 35.23872 32113 ft 415 kts 254°
2026-05-07 16:09 40.87205 35.16761 32119 ft 415 kts 254°
2026-05-07 16:10 40.85135 35.09651 32128 ft 415 kts 254°
2026-05-07 16:10 40.83057 35.02544 32121 ft 414 kts 254°
2026-05-07 16:11 40.80979 34.95446 32125 ft 414 kts 254°
2026-05-07 16:11 40.78917 34.88404 32127 ft 414 kts 253°
2026-05-07 16:12 40.76838 34.81320 32133 ft 414 kts 253°
2026-05-07 16:12 40.74742 34.74243 32117 ft 414 kts 253°
2026-05-07 16:13 40.72634 34.67186 32118 ft 413 kts 253°
2026-05-07 16:13 40.70505 34.60130 32122 ft 414 kts 253°
2026-05-07 16:14 40.68362 34.53087 32123 ft 413 kts 253°
2026-05-07 16:14 40.66220 34.46059 32130 ft 413 kts 253°
2026-05-07 16:15 40.64096 34.39074 32119 ft 413 kts 253°
2026-05-07 16:15 40.61960 34.32054 32118 ft 413 kts 253°
2026-05-07 16:16 40.59814 34.25033 32124 ft 413 kts 253°
2026-05-07 16:16 40.57668 34.18021 32122 ft 413 kts 253°
2026-05-07 16:17 40.55518 34.11017 32112 ft 413 kts 253°
2026-05-07 16:17 40.53357 34.04020 32118 ft 413 kts 253°
2026-05-07 16:18 40.51194 33.97039 32119 ft 412 kts 253°
2026-05-07 16:18 40.49150 33.90014 32113 ft 411 kts 257°
2026-05-07 16:19 40.47411 33.82885 32101 ft 409 kts 259°
2026-05-07 16:19 40.45339 33.75899 32126 ft 420 kts 243°
2026-05-07 16:19 40.43478 33.72899 32128 ft 430 kts 229°
2026-05-07 16:20 40.41055 33.70539 32121 ft 440 kts 214°
2026-05-07 16:20 40.38208 33.68970 32028 ft 448 kts 199°
2026-05-07 16:20 40.35157 33.68162 31776 ft 447 kts 194°
2026-05-07 16:20 40.32096 33.67459 31510 ft 446 kts 194°
2026-05-07 16:21 40.29085 33.66773 31189 ft 443 kts 194°
2026-05-07 16:21 40.26056 33.66081 30676 ft 442 kts 194°
2026-05-07 16:21 40.23031 33.65385 30156 ft 441 kts 194°
2026-05-07 16:21 40.20087 33.64422 29657 ft 432 kts 204°
2026-05-07 16:22 40.17370 33.62857 29214 ft 422 kts 214°
2026-05-07 16:22 40.14942 33.60790 28794 ft 411 kts 223°
2026-05-07 16:22 40.12658 33.58579 28401 ft 407 kts 222°
2026-05-07 16:22 40.10388 33.56394 28007 ft 404 kts 222°
2026-05-07 16:23 40.08132 33.54231 27605 ft 401 kts 221°
2026-05-07 16:23 40.05893 33.52087 27213 ft 398 kts 221°
2026-05-07 16:23 40.03670 33.49959 26812 ft 395 kts 221°
2026-05-07 16:23 40.01467 33.47849 26402 ft 392 kts 221°
2026-05-07 16:24 39.99274 33.45749 26005 ft 389 kts 221°
2026-05-07 16:24 39.97104 33.43668 25589 ft 387 kts 221°
2026-05-07 16:24 39.94938 33.41591 25112 ft 386 kts 221°
2026-05-07 16:24 39.92827 33.39446 24616 ft 382 kts 229°
2026-05-07 16:25 39.91304 33.36692 24124 ft 371 kts 250°
2026-05-07 16:25 39.90646 33.33504 23610 ft 362 kts 270°
2026-05-07 16:25 39.90889 33.30303 23104 ft 353 kts 289°
2026-05-07 16:25 39.91913 33.27459 22632 ft 346 kts 306°
2026-05-07 16:26 39.93320 33.24939 22173 ft 342 kts 307°
2026-05-07 16:26 39.94709 33.22481 21691 ft 341 kts 307°
2026-05-07 16:26 39.96131 33.19972 21173 ft 339 kts 307°
2026-05-07 16:26 39.97060 33.18333 20870 ft 338 kts 307°
2026-05-07 16:27 39.98908 33.15067 20246 ft 336 kts 307°
2026-05-07 16:27 40.00279 33.12634 19980 ft 328 kts 307°
2026-05-07 16:27 40.01698 33.10374 19853 ft 316 kts 320°
2026-05-07 16:27 40.03612 33.09121 19726 ft 307 kts 348°
2026-05-07 16:28 40.05707 33.09305 19608 ft 304 kts 18°
2026-05-07 16:28 40.07514 33.10701 19447 ft 301 kts 33°
2026-05-07 16:28 40.09201 33.12302 19191 ft 299 kts 33°
2026-05-07 16:28 40.10866 33.13910 18869 ft 296 kts 34°
2026-05-07 16:29 40.12522 33.15514 18328 ft 295 kts 33°
2026-05-07 16:29 40.14151 33.17086 17713 ft 295 kts 34°
2026-05-07 16:29 40.15797 33.18673 17162 ft 293 kts 34°
2026-05-07 16:29 40.17433 33.20247 16608 ft 291 kts 33°
2026-05-07 16:30 40.19057 33.21807 16097 ft 288 kts 33°
2026-05-07 16:30 40.20661 33.23349 15675 ft 283 kts 34°
2026-05-07 16:30 40.22258 33.24883 15298 ft 286 kts 34°
2026-05-07 16:30 40.23863 33.26421 15029 ft 285 kts 34°
2026-05-07 16:31 40.25469 33.27958 14693 ft 286 kts 34°
2026-05-07 16:31 40.27060 33.29485 14459 ft 283 kts 33°
2026-05-07 16:31 40.28652 33.31012 14144 ft 283 kts 34°
2026-05-07 16:31 40.30234 33.32526 13692 ft 280 kts 32°
2026-05-07 16:32 40.31985 33.33512 13158 ft 272 kts
2026-05-07 16:32 40.33815 33.33231 12643 ft 264 kts 334°
2026-05-07 16:32 40.35250 33.31819 12112 ft 258 kts 306°
2026-05-07 16:32 40.35967 33.29698 11511 ft 257 kts 279°
2026-05-07 16:33 40.36175 33.27354 10910 ft 260 kts 281°
2026-05-07 16:33 40.36465 33.25010 10333 ft 262 kts 270°
2026-05-07 16:33 40.35983 33.22724 9730 ft 265 kts 242°
2026-05-07 16:33 40.34866 33.20840 9103 ft 267 kts 223°
2026-05-07 16:34 40.33372 33.19335 8471 ft 267 kts 218°
2026-05-07 16:34 40.31880 33.17906 7753 ft 271 kts 218°
2026-05-07 16:34 40.30358 33.16445 7122 ft 269 kts 219°
2026-05-07 16:34 40.28878 33.15026 6718 ft 257 kts 218°
2026-05-07 16:35 40.27472 33.13678 6388 ft 246 kts 218°
2026-05-07 16:35 40.26141 33.12402 6069 ft 226 kts 218°
2026-05-07 16:35 40.24931 33.11243 5775 ft 206 kts 219°
2026-05-07 16:35 40.23836 33.10196 5537 ft 184 kts 217°
2026-05-07 16:36 40.22858 33.09260 5312 ft 162 kts 219°
2026-05-07 16:36 40.22003 33.08441 5087 ft 146 kts 218°
2026-05-07 16:36 40.21202 33.07676 4877 ft 140 kts 218°
2026-05-07 16:36 40.20425 33.06928 4712 ft 138 kts 220°
2026-05-07 16:37 40.19652 33.06183 4522 ft 138 kts 218°
2026-05-07 16:37 40.18867 33.05432 4295 ft 141 kts 218°
2026-05-07 16:37 40.18072 33.04668 4123 ft 142 kts 217°
2026-05-07 16:37 40.17264 33.03930 3937 ft 141 kts 216°
2026-05-07 16:38 40.16485 33.03187 3739 ft 139 kts 221°
2026-05-07 16:38 40.15707 33.02432 3567 ft 140 kts 217°
2026-05-07 16:38 40.14933 33.01678 3367 ft 139 kts 217°
2026-05-07 16:38 40.14154 33.00942 3194 ft 138 kts 219°
2026-05-07 16:39 40.13425 33.00242 3133 ft 113 kts 216°
2026-05-07 16:39 40.12895 32.99729 3131 ft 78 kts 216°
2026-05-07 16:39 40.12513 32.99372 3130 ft 59 kts 215°
2026-05-07 16:39 40.12258 32.99211 3124 ft 33 kts 188°
2026-05-07 16:40 40.12106 32.99190 3122 ft 21 kts 183°
2026-05-07 16:40 40.11961 32.99150 3125 ft 22 kts 209°
2026-05-07 16:40 40.11831 32.99029 3128 ft 23 kts 216°
2026-05-07 16:40 40.11695 32.98896 3126 ft 23 kts 217°
2026-05-07 16:41 40.11632 32.98937 3125 ft 12 kts 124°
2026-05-07 16:41 40.11563 32.98915 3124 ft 13 kts 222°
2026-05-07 16:41 40.11490 32.98834 3123 ft 15 kts 216°
2026-05-07 16:41 40.11416 32.98784 3123 ft 7 kts 155°
2026-05-07 16:42 40.11407 32.98798 3119 ft 0 kts 123°
2026-05-07 16:42 40.11399 32.98813 3123 ft 5 kts 125°
2026-05-07 16:42 40.11383 32.98840 3123 ft 2 kts 127°
2026-05-07 16:42 40.11382 32.98842 3123 ft 0 kts 127°